PACCTY Weather Reports


Display with metric or nautical units.
time (UTC)temp
F
wind
direction
speed
MPH
gust
MPH
rain 1hr
in
rain 24hr
in
rain mn
in
humidity
%
barometer
mb
20260502163012 53 0 0.0 0.0 0.00 0.00 0.00 87 1014.7
20260502162512 53 0 0.0 0.0 0.00 0.00 0.00 87 1014.8
20260502162012 53 0 0.0 0.0 0.00 0.00 0.00 87 1014.8
20260502160512 53 0 0.0 0.0 0.00 0.00 0.00 87 1014.9
20260502152012 52 0 0.0 0.0 0.00 0.00 0.00 91 1014.8
20260502150512 52 0 0.0 0.0 0.00 0.00 0.00 91 1014.9
20260502123512 51 0 0.0 0.0 0.00 0.00 0.00 90 1015.1
20260502123012 51 0 0.0 0.0 0.00 0.00 0.00 90 1015.2
20260502122512 51 0 0.0 0.0 0.00 0.00 0.00 90 1015.1
20260502121512 51 0 0.0 0.0 0.00 0.00 0.00 90 1015.3
20260502121014 51 0 0.0 0.0 0.00 0.00 0.00 90 1015.3
20260502120511 51 0 0.0 0.0 0.00 0.00 0.00 90 1015.4
20260502115513 51 0 0.0 0.0 0.00 0.00 0.00 90 1015.3
20260502114512 51 0 0.0 0.0 0.00 0.00 0.00 90 1015.2
20260502114013 51 0 0.0 0.0 0.00 0.00 0.00 90 1015.2
20260502113512 51 0 0.0 0.0 0.00 0.00 0.00 91 1015.2
20260502112512 51 0 0.0 0.0 0.00 0.00 0.00 90 1015.1
20260502112012 51 0 0.0 0.0 0.00 0.00 0.00 90 1015.0
20260502110512 51 0 0.0 0.0 0.00 0.00 0.00 90 1015.2
20260502110011 52 0 0.0 0.0 0.00 0.00 0.00 90 1015.2
20260502105511 51 0 0.0 0.0 0.00 0.00 0.00 90 1015.3
20260502104512 52 0 0.0 0.0 0.00 0.00 0.00 90 1015.3
20260502103511 52 0 0.0 0.0 0.00 0.00 0.00 90 1015.4
20260502103011 52 0 0.0 0.0 0.00 0.00 0.00 90 1015.5
20260502102512 52 0 0.0 0.0 0.00 0.00 0.00 90 1015.4
20260502100512 52 0 0.0 0.0 0.00 0.00 0.00 90 1015.6
20260502091012 52 0 0.0 0.0 0.00 0.00 0.00 89 1016.2
20260502090511 52 0 0.0 0.0 0.00 0.00 0.00 89 1016.2
20260502071511 52 0 0.0 0.0 0.00 0.00 0.00 89 1016.5
20260502071011 52 0 0.0 0.0 0.00 0.00 0.00 89 1016.5
20260502070011 52 0 0.0 0.0 0.00 0.00 0.00 89 1016.5
20260502065011 53 0 0.0 0.0 0.00 0.00 0.00 89 1016.5
20260502064511 53 0 0.0 0.0 0.00 0.00 0.00 89 1016.6
20260502063511 52 0 0.0 0.0 0.00 0.00 0.00 88 1016.6
20260502063011 52 0 0.0 0.0 0.00 0.00 0.00 88 1016.6
20260502062511 52 0 0.0 0.0 0.00 0.00 0.00 88 1016.6
20260502060512 53 0 0.0 0.0 0.00 0.00 0.00 88 1016.6
20260502055511 53 0 0.0 0.0 0.00 0.00 0.00 89 1016.6
20260502054511 53 0 0.0 0.0 0.00 0.00 0.00 88 1016.6
20260502053511 53 0 0.0 0.0 0.00 0.00 0.00 89 1016.6
20260502053011 53 0 0.0 0.0 0.00 0.00 0.00 89 1016.6
20260502052511 53 0 0.0 0.0 0.00 0.00 0.00 88 1016.5
20260502052011 53 0 0.0 0.0 0.00 0.00 0.00 89 1016.5
20260502051512 53 0 0.0 0.0 0.00 0.00 0.00 89 1016.4
20260502050511 53 0 0.0 0.0 0.00 0.00 0.00 88 1016.4
20260502050011 53 0 0.0 0.0 0.00 0.00 0.00 88 1016.4
20260502045511 53 0 0.0 0.0 0.00 0.00 0.00 88 1016.4
20260502045012 53 0 0.0 0.0 0.00 0.00 0.00 88 1016.4
20260502044511 53 0 0.0 0.0 0.00 0.00 0.00 88 1016.4
20260502044013 53 0 0.0 0.0 0.00 0.00 0.00 88 1016.3
20260502043511 53 0 0.0 0.0 0.00 0.00 0.00 88 1016.3
20260502043011 53 0 0.0 0.0 0.00 0.00 0.00 88 1016.3
20260502042511 53 0 0.0 0.0 0.00 0.00 0.00 88 1016.3
20260502042011 53 0 0.0 0.0 0.00 0.00 0.00 88 1016.3
20260502041512 53 0 0.0 0.0 0.00 0.00 0.00 88 1016.3
20260502040511 53 0 0.0 0.0 0.00 0.00 0.00 88 1016.2
20260502035511 53 0 0.0 3.0 0.00 0.00 0.00 88 1016.1
20260502034011 53 0 0.0 1.0 0.00 0.00 0.00 88 1016.0
20260502033511 53 0 0.0 3.0 0.00 0.00 0.00 88 1016.0
20260502033011 53 0 0.0 3.0 0.00 0.00 0.00 88 1016.0
20260502032513 53 9 0.0 3.0 0.00 0.00 0.00 88 1016.0
20260502032011 53 354 0.0 1.0 0.00 0.00 0.00 87 1016.0
20260502031511 53 0 0.0 0.0 0.00 0.00 0.00 87 1016.0
20260502030510 53 0 0.0 0.0 0.00 0.00 0.00 87 1016.0
20260502030028 53 331 0.0 7.0 0.00 0.00 0.00 87 1016.0
20260502030011 53 331 0.0 7.0 0.00 0.00 0.00 87 1016.0
20260502025513 53 330 1.0 7.0 0.00 0.00 0.00 87 1015.9
20260502023512 54 333 0.0 3.0 0.00 0.00 0.00 87 1015.8
20260502022511 53 338 0.0 3.0 0.00 0.00 0.00 88 1015.6
20260502022011 53 0 0.0 5.0 0.00 0.00 0.00 87 1015.7
20260502021511 54 329 0.0 5.0 0.00 0.00 0.00 87 1015.6
20260502021011 54 18 0.0 5.0 0.00 0.00 0.00 87 1015.7
20260502020511 54 330 0.0 4.0 0.00 0.00 0.00 87 1015.6
20260502020011 54 322 2.0 4.0 0.00 0.00 0.00 87 1015.7
20260502015513 54 320 0.0 4.0 0.00 0.00 0.00 87 1015.7
20260502014511 54 357 2.0 2.0 0.00 0.00 0.00 87 1015.8
20260502013510 54 319 0.0 4.0 0.00 0.00 0.00 87 1015.7
20260502012510 54 310 0.0 4.0 0.00 0.00 0.00 88 1015.7
20260502012010 54 305 0.0 4.0 0.00 0.00 0.00 88 1015.7
20260502011011 54 330 2.0 4.0 0.00 0.00 0.00 87 1015.7
20260502010510 54 331 0.0 3.0 0.00 0.00 0.00 87 1015.7
20260502010011 54 317 2.0 3.0 0.00 0.00 0.00 87 1015.6
20260502005511 54 344 0.0 3.0 0.00 0.00 0.00 87 1015.8
20260502005011 55 0 0.0 0.0 0.00 0.00 0.00 87 1015.7
20260502003510 55 322 0.0 4.0 0.00 0.00 0.00 87 1015.7
20260502002510 55 327 2.0 3.0 0.00 0.00 0.00 88 1015.7
20260502002011 55 338 0.0 3.0 0.00 0.00 0.00 87 1015.7
20260502000511 55 308 1.0 3.0 0.00 0.00 0.00 87 1015.7
20260502000012 55 316 0.0 2.0 0.00 0.00 0.00 87 1015.7
20260501235511 55 348 0.0 1.0 0.00 0.00 0.00 87 1015.7
20260501234011 55 23 0.0 5.0 0.00 0.00 0.00 86 1015.7
20260501232510 56 329 0.0 3.0 0.00 0.00 0.00 86 1015.8
20260501232011 56 317 2.0 3.0 0.00 0.00 0.00 86 1015.8
20260501231011 56 319 0.0 2.0 0.00 0.00 0.00 85 1015.9
20260501230512 56 331 0.0 5.0 0.00 0.00 0.00 85 1015.9
20260501225010 56 40 1.0 3.0 0.00 0.00 0.00 84 1016.1
20260501224510 56 324 0.0 5.0 0.00 0.00 0.00 83 1016.1
20260501223510 56 18 1.0 5.0 0.00 0.00 0.00 83 1016.1
20260501223010 57 337 1.0 5.0 0.00 0.00 0.00 83 1016.2
20260501222010 57 21 2.0 4.0 0.00 0.00 0.00 83 1016.2
20260501221510 57 333 0.0 4.0 0.00 0.00 0.00 82 1016.3
20260501220511 58 25 0.0 4.0 0.00 0.00 0.00 82 1016.4
20260501215510 58 7 1.0 4.0 0.00 0.00 0.00 80 1016.3
20260501214510 58 305 0.0 5.0 0.00 0.00 0.00 82 1016.4
20260501214010 58 324 2.0 5.0 0.00 0.00 0.00 80 1016.3
20260501213616 59 350 1.0 4.0 0.00 0.00 0.00 79 1016.4
20260501213510 59 350 1.0 4.0 0.00 0.00 0.00 79 1016.4
20260501213012 59 42 1.0 4.0 0.00 0.00 0.00 79 1016.4
20260501212510 59 331 2.0 4.0 0.00 0.00 0.00 79 1016.4
20260501211511 58 19 2.0 6.0 0.00 0.00 0.00 80 1016.3
20260501211010 58 310 2.0 6.0 0.00 0.00 0.00 82 1016.3
20260501210509 57 357 3.0 6.0 0.00 0.00 0.00 83 1016.3
20260501210010 57 327 3.0 5.0 0.00 0.00 0.00 81 1016.4
20260501205510 58 0 2.0 5.0 0.00 0.00 0.00 82 1016.4
20260501205011 58 18 1.0 5.0 0.00 0.00 0.00 80 1016.4
20260501204512 58 347 1.0 5.0 0.00 0.00 0.00 80 1016.4
20260501204010 58 15 0.0 5.0 0.00 0.00 0.00 80 1016.3
20260501203511 59 2 0.0 4.0 0.00 0.00 0.00 80 1016.3
20260501203011 59 333 0.0 4.0 0.00 0.00 0.00 79 1016.3
20260501202509 58 21 0.0 4.0 0.00 0.00 0.00 80 1016.3
20260501202009 58 315 2.0 4.0 0.00 0.00 0.00 80 1016.3
20260501201512 58 323 0.0 4.0 0.00 0.00 0.00 80 1016.3
20260501201011 59 357 1.0 4.0 0.00 0.00 0.00 80 1016.3
20260501200509 58 330 1.0 4.0 0.00 0.00 0.00 79 1016.3
20260501200011 58 347 0.0 7.0 0.00 0.00 0.00 80 1016.4
20260501195011 58 8 3.0 7.0 0.00 0.00 0.00 79 1016.4
20260501194511 58 355 3.0 4.0 0.00 0.00 0.00 79 1016.5
20260501194012 58 5 2.0 4.0 0.00 0.00 0.00 83 1016.6
20260501193509 58 2 0.0 4.0 0.00 0.00 0.00 81 1016.6
20260501193010 58 18 0.0 3.0 0.00 0.00 0.00 81 1016.5
20260501192009 58 317 0.0 2.0 0.00 0.00 0.00 81 1016.6
20260501191509 57 0 1.0 1.0 0.00 0.00 0.00 82 1016.7
20260501191011 57 327 0.0 5.0 0.00 0.00 0.00 80 1016.8
20260501190510 57 0 0.0 5.0 0.00 0.00 0.00 81 1016.8
20260501190009 57 30 0.0 5.0 0.00 0.00 0.00 81 1016.8
20260501185509 57 331 1.0 3.0 0.00 0.00 0.00 82 1016.8
20260501185009 57 312 0.0 3.0 0.00 0.00 0.00 82 1016.8
20260501184511 57 2 0.0 6.0 0.00 0.00 0.00 82 1016.7
20260501184010 57 0 3.0 6.0 0.00 0.00 0.00 83 1016.7
20260501183509 57 8 0.0 6.0 0.00 0.00 0.00 83 1016.7
20260501183009 56 303 2.0 5.0 0.00 0.00 0.00 83 1016.7
20260501182511 56 315 2.0 5.0 0.00 0.00 0.00 83 1016.8
20260501182010 56 357 0.0 5.0 0.00 0.00 0.00 85 1016.8
20260501181010 56 11 0.0 5.0 0.00 0.00 0.00 83 1016.8
20260501180509 56 338 0.0 3.0 0.00 0.00 0.00 84 1016.8
20260501180010 56 0 0.0 3.0 0.00 0.00 0.00 84 1016.7
20260501175510 56 320 0.0 3.0 0.00 0.00 0.00 83 1016.7
20260501173510 56 254 1.0 6.0 0.00 0.00 0.00 84 1016.7
20260501173009 57 229 0.0 6.0 0.00 0.00 0.00 84 1016.7
20260501172010 56 0 0.0 1.0 0.00 0.00 0.00 85 1016.5
20260501171510 56 0 0.0 0.0 0.00 0.00 0.00 86 1016.4
20260501170009 56 0 0.0 0.0 0.00 0.00 0.00 85 1016.3
20260501165510 56 0 0.0 0.0 0.00 0.00 0.00 84 1016.3
20260501164010 56 0 0.0 0.0 0.00 0.00 0.00 87 1016.3